Regional Weather Roundup
Issued by NWS Kansas City/Pleasant Hill, MO

Home | Current Version | Previous Version | Graphics & Text | Print | Product List | Glossary Off
Versions: 1 2 3 4 5 6 7 8 9 10 11 12 13 14 15 16 17 18 19 20 21 22 23 24 25 26 27 28 29 30 31 32 33 34 35 36 37 38 39 40 41 42 43 44 45 46 47 48 49 50

000
ASUS43 KEAX 030710
RWREAX

WEATHER ROUNDUP FOR EASTERN KANSAS AND NORTHWEST MISSOURI
NATIONAL WEATHER SERVICE KANSAS CITY/PLEASANT HILL MO
100 AM CST SAT DEC 03 2016

KSZ040-057-103>105-MOZ028-029-037-043-030800-
...KANSAS CITY METROPOLITAN AREA...

CITY           SKY/WX    TMP DP  RH WIND       PRES   REMARKS
K.C. INTL      NOT AVBL
K.C. DOWNTOWN  PTCLDY    33  29  85 CALM      30.36F
LEES SUMMIT    NOT AVBL
OLATHE - IXD   NOT AVBL
OLATHE - OJC   NOT AVBL

$$

MOZ001>008-011>017-020>025-030>033-038>040-044>046-053-054-030800-
...NORTHERN AND CENTRAL MISSOURI...

CITY           SKY/WX    TMP DP  RH WIND       PRES   REMARKS
ST. JOSEPH     NOT AVBL
MOSBY          CLOUDY    27  27 100 CALM      30.38S
WARRENSBURG    PTCLDY    30  27  86 NW5       30.35F WCI  25
WHITEMAN AFB   PTCLDY    31  28  87 CALM      30.34F
CLINTON        CLOUDY    32  27  80 CALM      30.35S
SEDALIA        NOT AVBL
WARSAW         NOT AVBL
CHILLICOTHE      N/A     28  25  88 CALM      30.38F
KIRKSVILLE     NOT AVBL

$$

MOZ041-047>049-056>058-063>065-088>090-097-030800-
...EASTERN AND SOUTHERN MISSOURI...

CITY           SKY/WX    TMP DP  RH WIND       PRES   REMARKS
ST. LOUIS INTL PTCLDY    35  28  75 CALM      30.37F
SPIRIT OF STL  CLEAR     27  26  96 CALM      30.37S
COLUMBIA       PTCLDY    34  27  75 E5        30.35F WCI  30
BRANSON        CLOUDY    45  32  61 E6        30.30S

$$

IAZ060-094-KSZ022-034>040-054-083-096-NEZ052-066-093-030800-
...KANSAS...SOUTHEAST NEBRASKA AND IOWA...

CITY           SKY/WX    TMP DP  RH WIND       PRES   REMARKS
TOPEKA         NOT AVBL
MANHATTAN      CLOUDY    30  25  81 CALM      30.36F
OMAHA          MOCLDY    25  21  85 SE7       30.37R WCI  17
LINCOLN        PTCLDY    26  23  88 CALM      30.37S
DES MOINES     CLOUDY    36  30  79 S3        30.36R

$$




USA.gov is the U.S. government's official web portal to all federal, state and local government web resources and services.